Time,TemperatureF,DewpointF,PressureIn,WindDirection,WindDirectionDegrees,WindSpeedMPH,WindSpeedGustMPH,Humidity,HourlyPrecipIn,Conditions,Clouds,dailyrainin,SoftwareType,DateUTC
2013-07-09 00:01:00,74.2,68.1,29.97,SE,135,1.1,1.6,81,0.00,,,0.00,WUHU216HW,2013-07-09 04:01:00,
2013-07-09 00:02:00,74.3,68.2,29.97,SSE,158,0.4,1.1,81,0.00,,,0.00,WUHU216HW,2013-07-09 04:02:00,
2013-07-09 00:07:00,74.2,68.1,29.97,South,180,0.4,1.1,81,0.00,,,0.00,WUHU216HW,2013-07-09 04:07:00,
2013-07-09 00:12:00,74.2,68.1,29.97,South,180,0.4,1.8,81,0.00,,,0.00,WUHU216HW,2013-07-09 04:12:00,
2013-07-09 00:17:00,74.2,68.1,29.98,SSE,158,1.1,1.8,81,0.00,,,0.00,WUHU216HW,2013-07-09 04:17:00,
2013-07-09 00:22:00,74.0,67.9,29.97,SE,135,1.1,1.6,81,0.00,,,0.00,WUHU216HW,2013-07-09 04:22:00,
2013-07-09 00:27:00,73.8,67.7,29.97,ESE,113,0.0,1.6,81,0.00,,,0.00,WUHU216HW,2013-07-09 04:27:00,
2013-07-09 00:32:00,73.8,67.7,29.97,ESE,113,0.2,1.3,81,0.00,,,0.00,WUHU216HW,2013-07-09 04:32:00,
2013-07-09 00:36:00,73.8,67.7,29.97,SE,135,1.1,1.1,81,0.00,,,0.00,WUHU216HW,2013-07-09 04:36:00,
2013-07-09 00:41:00,73.8,67.7,29.97,ESE,113,0.0,1.1,81,0.00,,,0.00,WUHU216HW,2013-07-09 04:41:00,
2013-07-09 00:47:00,73.6,67.5,29.97,ESE,113,0.9,1.8,81,0.00,,,0.00,WUHU216HW,2013-07-09 04:47:00,
2013-07-09 00:52:00,73.6,67.9,29.97,ESE,113,1.1,2.5,82,0.00,,,0.00,WUHU216HW,2013-07-09 04:52:00,
2013-07-09 00:57:00,73.4,67.7,29.97,SE,135,0.4,2.5,82,0.00,,,0.00,WUHU216HW,2013-07-09 04:57:00,
2013-07-09 01:02:00,73.4,67.7,29.97,SE,135,1.3,1.6,82,0.00,,,0.00,WUHU216HW,2013-07-09 05:02:00,
2013-07-09 01:07:00,73.4,67.7,29.97,SSE,158,0.0,1.6,82,0.00,,,0.00,WUHU216HW,2013-07-09 05:07:00,
2013-07-09 01:12:00,73.4,67.7,29.97,ENE,68,0.0,1.3,82,0.00,,,0.00,WUHU216HW,2013-07-09 05:12:00,
2013-07-09 01:17:00,73.3,67.5,29.97,ESE,113,0.4,0.7,82,0.00,,,0.00,WUHU216HW,2013-07-09 05:17:00,
2013-07-09 01:22:00,73.1,67.3,29.97,ESE,113,0.0,0.7,82,0.00,,,0.00,WUHU216HW,2013-07-09 05:22:00,
2013-07-09 01:27:00,73.1,67.3,29.97,ESE,113,0.0,0.7,82,0.00,,,0.00,WUHU216HW,2013-07-09 05:27:00,
2013-07-09 01:32:00,73.1,67.3,29.96,ESE,113,0.0,0.2,82,0.00,,,0.00,WUHU216HW,2013-07-09 05:32:00,
2013-07-09 01:37:00,72.9,67.2,29.96,ESE,113,0.0,0.2,82,0.00,,,0.00,WUHU216HW,2013-07-09 05:37:00,
2013-07-09 01:42:00,72.9,67.4,29.96,ESE,113,0.0,0.0,83,0.00,,,0.00,WUHU216HW,2013-07-09 05:42:00,
2013-07-09 01:47:00,72.7,67.2,29.96,ESE,113,0.0,0.0,83,0.00,,,0.00,WUHU216HW,2013-07-09 05:47:00,
2013-07-09 01:52:00,72.5,66.8,29.96,ESE,113,0.0,0.0,82,0.00,,,0.00,WUHU216HW,2013-07-09 05:52:00,
2013-07-09 01:57:00,72.5,66.8,29.96,ESE,113,0.0,0.0,82,0.00,,,0.00,WUHU216HW,2013-07-09 05:57:00,
2013-07-09 02:02:00,72.4,66.6,29.96,ESE,113,0.0,0.0,82,0.00,,,0.00,WUHU216HW,2013-07-09 06:02:00,
2013-07-09 02:07:00,72.4,66.6,29.96,ESE,113,0.0,0.0,82,0.00,,,0.00,WUHU216HW,2013-07-09 06:07:00,
2013-07-09 02:12:00,72.2,66.7,29.96,ESE,113,0.0,0.0,83,0.00,,,0.00,WUHU216HW,2013-07-09 06:12:00,
2013-07-09 02:17:00,72.2,66.7,29.95,ESE,113,0.0,0.0,83,0.00,,,0.00,WUHU216HW,2013-07-09 06:17:00,
2013-07-09 02:22:00,72.0,66.5,29.96,ESE,113,0.0,0.0,83,0.00,,,0.00,WUHU216HW,2013-07-09 06:22:00,
2013-07-09 02:27:00,71.8,66.3,29.96,ESE,113,0.0,0.0,83,0.00,,,0.00,WUHU216HW,2013-07-09 06:27:00,
2013-07-09 02:32:00,71.8,66.3,29.95,ESE,113,0.0,0.0,83,0.00,,,0.00,WUHU216HW,2013-07-09 06:32:00,
2013-07-09 02:37:00,71.6,66.2,29.96,ESE,113,0.0,0.0,83,0.00,,,0.00,WUHU216HW,2013-07-09 06:37:00,
2013-07-09 02:42:00,71.6,66.2,29.95,ESE,113,0.0,0.0,83,0.00,,,0.00,WUHU216HW,2013-07-09 06:42:00,
2013-07-09 02:47:00,71.5,66.3,29.95,ESE,113,0.0,0.0,84,0.00,,,0.00,WUHU216HW,2013-07-09 06:47:00,
2013-07-09 02:52:00,71.5,66.3,29.95,ESE,113,0.0,0.0,84,0.00,,,0.00,WUHU216HW,2013-07-09 06:52:00,
2013-07-09 02:57:00,71.5,66.3,29.95,ESE,113,0.0,0.0,84,0.00,,,0.00,WUHU216HW,2013-07-09 06:57:00,
2013-07-09 03:02:00,71.3,66.2,29.95,ESE,113,0.0,0.0,84,0.00,,,0.00,WUHU216HW,2013-07-09 07:02:00,
2013-07-09 03:07:00,71.3,66.2,29.95,ESE,113,0.0,0.0,84,0.00,,,0.00,WUHU216HW,2013-07-09 07:07:00,
2013-07-09 03:12:00,71.1,66.0,29.96,ESE,113,0.0,0.0,84,0.00,,,0.00,WUHU216HW,2013-07-09 07:12:00,
2013-07-09 03:17:00,71.1,66.0,29.96,ESE,113,0.0,0.0,84,0.00,,,0.00,WUHU216HW,2013-07-09 07:17:00,
2013-07-09 03:22:00,70.9,65.8,29.96,ESE,113,0.0,0.0,84,0.00,,,0.00,WUHU216HW,2013-07-09 07:22:00,
2013-07-09 03:27:00,70.9,65.8,29.96,ESE,113,0.0,0.0,84,0.00,,,0.00,WUHU216HW,2013-07-09 07:27:00,
2013-07-09 03:32:00,70.9,65.8,29.96,ESE,113,0.0,0.0,84,0.00,,,0.00,WUHU216HW,2013-07-09 07:32:00,
2013-07-09 03:37:00,70.9,66.2,29.96,ESE,113,0.0,0.0,85,0.00,,,0.00,WUHU216HW,2013-07-09 07:37:00,
2013-07-09 03:42:00,70.7,66.0,29.96,ESE,113,0.0,0.0,85,0.00,,,0.00,WUHU216HW,2013-07-09 07:42:00,
2013-07-09 03:47:00,70.7,66.0,29.96,ESE,113,0.0,0.0,85,0.00,,,0.00,WUHU216HW,2013-07-09 07:47:00,
2013-07-09 03:52:00,70.7,66.0,29.96,ESE,113,0.0,0.0,85,0.00,,,0.00,WUHU216HW,2013-07-09 07:52:00,
2013-07-09 03:57:00,70.7,66.0,29.96,ESE,113,0.0,0.0,85,0.00,,,0.00,WUHU216HW,2013-07-09 07:57:00,
2013-07-09 04:02:00,70.6,65.8,29.96,ESE,113,0.0,0.0,85,0.00,,,0.00,WUHU216HW,2013-07-09 08:02:00,
2013-07-09 04:07:00,70.6,65.8,29.96,ESE,113,0.0,0.2,85,0.00,,,0.00,WUHU216HW,2013-07-09 08:07:00,
2013-07-09 04:12:00,70.6,65.8,29.97,ESE,113,0.0,0.2,85,0.00,,,0.00,WUHU216HW,2013-07-09 08:12:00,
2013-07-09 04:17:00,70.6,66.2,29.96,NNE,23,0.7,1.1,86,0.00,,,0.00,WUHU216HW,2013-07-09 08:17:00,
2013-07-09 04:22:00,70.6,66.2,29.97,NNE,23,0.0,1.1,86,0.00,,,0.00,WUHU216HW,2013-07-09 08:22:00,
2013-07-09 04:27:00,70.6,66.2,29.97,NNE,23,0.0,0.9,86,0.00,,,0.00,WUHU216HW,2013-07-09 08:27:00,
2013-07-09 04:32:00,70.6,66.2,29.97,NNE,23,0.0,0.0,86,0.00,,,0.00,WUHU216HW,2013-07-09 08:32:00,
2013-07-09 04:37:00,70.6,66.2,29.96,NNE,23,0.0,0.0,86,0.00,,,0.00,WUHU216HW,2013-07-09 08:37:00,
2013-07-09 04:42:00,70.4,66.0,29.96,NNE,23,0.0,0.0,86,0.00,,,0.00,WUHU216HW,2013-07-09 08:42:00,
2013-07-09 04:47:00,70.4,66.0,29.96,NNE,23,0.0,0.0,86,0.00,,,0.00,WUHU216HW,2013-07-09 08:47:00,
2013-07-09 04:52:00,70.4,66.0,29.96,NNE,23,0.0,0.0,86,0.00,,,0.00,WUHU216HW,2013-07-09 08:52:00,
2013-07-09 04:57:00,70.2,65.8,29.96,NNE,23,0.0,0.0,86,0.00,,,0.00,WUHU216HW,2013-07-09 08:57:00,
2013-07-09 05:02:00,70.2,65.8,29.96,NNE,23,0.0,0.0,86,0.00,,,0.00,WUHU216HW,2013-07-09 09:02:00,
2013-07-09 05:07:00,70.2,65.8,29.96,NNE,23,0.0,0.0,86,0.00,,,0.00,WUHU216HW,2013-07-09 09:07:00,
2013-07-09 05:12:00,70.2,65.8,29.96,NNE,23,0.0,0.0,86,0.00,,,0.00,WUHU216HW,2013-07-09 09:12:00,
2013-07-09 05:17:00,70.2,66.2,29.96,NNE,23,0.0,0.0,87,0.00,,,0.00,WUHU216HW,2013-07-09 09:17:00,
2013-07-09 05:22:00,70.2,66.2,29.96,NNE,23,0.0,0.0,87,0.00,,,0.00,WUHU216HW,2013-07-09 09:22:00,
2013-07-09 05:27:00,70.2,66.2,29.95,NNE,23,0.0,0.0,87,0.00,,,0.00,WUHU216HW,2013-07-09 09:27:00,
2013-07-09 05:32:00,70.2,66.2,29.95,NNE,23,0.0,0.0,87,0.00,,,0.00,WUHU216HW,2013-07-09 09:32:00,
2013-07-09 05:37:00,70.2,66.2,29.96,NNE,23,0.0,0.0,87,0.00,,,0.00,WUHU216HW,2013-07-09 09:37:00,
2013-07-09 05:42:00,70.2,66.2,29.96,NNE,23,0.0,0.0,87,0.00,,,0.00,WUHU216HW,2013-07-09 09:42:00,
2013-07-09 05:47:00,70.2,66.2,29.96,NNE,23,0.0,0.0,87,0.00,,,0.00,WUHU216HW,2013-07-09 09:47:00,
2013-07-09 05:52:00,70.2,66.2,29.96,NNE,23,0.0,0.0,87,0.00,,,0.00,WUHU216HW,2013-07-09 09:52:00,
2013-07-09 05:57:00,70.2,66.2,29.96,ENE,68,0.0,0.0,87,0.00,,,0.00,WUHU216HW,2013-07-09 09:57:00,
2013-07-09 06:02:00,70.0,66.0,29.96,ENE,68,0.0,0.0,87,0.00,,,0.00,WUHU216HW,2013-07-09 10:02:00,
2013-07-09 06:07:00,70.0,66.0,29.96,ENE,68,0.0,0.0,87,0.00,,,0.00,WUHU216HW,2013-07-09 10:07:00,
2013-07-09 06:12:00,70.0,66.0,29.96,ENE,68,0.0,0.0,87,0.00,,,0.00,WUHU216HW,2013-07-09 10:12:00,
2013-07-09 06:17:00,70.0,66.0,29.96,ENE,68,0.0,0.0,87,0.00,,,0.00,WUHU216HW,2013-07-09 10:17:00,
2013-07-09 06:22:00,69.8,65.8,29.96,ENE,68,0.0,0.0,87,0.00,,,0.00,WUHU216HW,2013-07-09 10:22:00,
2013-07-09 06:27:00,70.0,66.0,29.96,ENE,68,0.0,0.0,87,0.00,,,0.00,WUHU216HW,2013-07-09 10:27:00,
2013-07-09 06:32:00,70.0,66.2,29.96,ENE,68,0.0,0.0,88,0.00,,,0.00,WUHU216HW,2013-07-09 10:32:00,
2013-07-09 06:37:00,70.0,66.2,29.97,ENE,68,0.0,0.0,88,0.00,,,0.00,WUHU216HW,2013-07-09 10:37:00,
2013-07-09 06:42:00,70.2,66.4,29.97,ENE,68,0.0,0.0,88,0.00,,,0.00,WUHU216HW,2013-07-09 10:42:00,
2013-07-09 06:47:00,70.2,66.4,29.97,ENE,68,0.0,0.0,88,0.00,,,0.00,WUHU216HW,2013-07-09 10:47:00,
2013-07-09 06:52:00,70.2,66.4,29.97,ENE,68,0.0,0.0,88,0.00,,,0.00,WUHU216HW,2013-07-09 10:52:00,
2013-07-09 06:57:00,70.2,66.4,29.97,ENE,68,0.0,0.0,88,0.00,,,0.00,WUHU216HW,2013-07-09 10:57:00,
2013-07-09 07:02:00,70.4,66.6,29.97,ENE,68,0.0,0.0,88,0.00,,,0.00,WUHU216HW,2013-07-09 11:02:00,
2013-07-09 07:07:00,70.6,66.8,29.97,ENE,68,0.0,0.0,88,0.00,,,0.00,WUHU216HW,2013-07-09 11:07:00,
2013-07-09 07:12:00,70.7,67.0,29.96,NNE,23,0.0,0.0,88,0.00,,,0.00,WUHU216HW,2013-07-09 11:12:00,
2013-07-09 07:17:00,70.9,67.1,29.97,NE,45,0.0,0.0,88,0.00,,,0.00,WUHU216HW,2013-07-09 11:17:00,
2013-07-09 07:22:00,71.1,67.3,29.97,SW,225,0.0,0.0,88,0.00,,,0.00,WUHU216HW,2013-07-09 11:22:00,
2013-07-09 07:27:00,71.3,67.5,29.97,SW,225,0.0,0.0,88,0.00,,,0.00,WUHU216HW,2013-07-09 11:27:00,
2013-07-09 07:32:00,71.5,67.7,29.96,WNW,293,0.0,0.0,88,0.00,,,0.00,WUHU216HW,2013-07-09 11:32:00,
2013-07-09 07:37:00,71.6,67.9,29.97,WNW,293,0.0,0.0,88,0.00,,,0.00,WUHU216HW,2013-07-09 11:37:00,
2013-07-09 07:42:00,72.0,68.2,29.97,SW,225,0.0,0.0,88,0.00,,,0.00,WUHU216HW,2013-07-09 11:42:00,
2013-07-09 07:47:00,72.4,68.6,29.97,SW,225,0.0,0.0,88,0.00,,,0.00,WUHU216HW,2013-07-09 11:47:00,
2013-07-09 07:52:00,72.5,68.8,29.97,North,0,0.0,0.0,88,0.00,,,0.00,WUHU216HW,2013-07-09 11:52:00,
2013-07-09 07:57:00,72.7,68.9,29.97,WSW,248,0.0,0.0,88,0.00,,,0.00,WUHU216HW,2013-07-09 11:57:00,
2013-07-09 08:02:00,72.9,69.1,29.97,WSW,248,0.4,3.6,88,0.00,,,0.00,WUHU216HW,2013-07-09 12:02:00,
2013-07-09 08:07:00,73.1,69.7,29.97,West,270,0.0,3.6,89,0.00,,,0.00,WUHU216HW,2013-07-09 12:07:00,
2013-07-09 08:12:00,73.3,69.8,29.97,WSW,248,1.3,2.5,89,0.00,,,0.00,WUHU216HW,2013-07-09 12:12:00,
2013-07-09 08:17:00,73.4,69.7,29.97,North,0,0.2,3.4,88,0.00,,,0.00,WUHU216HW,2013-07-09 12:17:00,
2013-07-09 08:22:00,73.6,69.8,29.97,North,0,0.4,3.4,88,0.00,,,0.00,WUHU216HW,2013-07-09 12:22:00,
2013-07-09 08:27:00,73.6,69.8,29.97,WSW,248,1.1,1.8,88,0.00,,,0.00,WUHU216HW,2013-07-09 12:27:00,
2013-07-09 08:32:00,74.0,70.2,29.97,North,0,0.7,1.8,88,0.00,,,0.00,WUHU216HW,2013-07-09 12:32:00,
2013-07-09 08:37:00,74.3,70.9,29.97,SW,225,1.1,2.0,89,0.00,,,0.00,WUHU216HW,2013-07-09 12:37:00,
2013-07-09 08:42:00,74.7,71.3,29.97,SW,225,0.2,2.0,89,0.00,,,0.00,WUHU216HW,2013-07-09 12:42:00,
2013-07-09 08:47:00,75.2,71.8,29.97,SW,225,1.3,1.3,89,0.00,,,0.00,WUHU216HW,2013-07-09 12:47:00,
2013-07-09 08:52:00,76.0,71.8,29.97,WSW,248,0.4,3.6,87,0.00,,,0.00,WUHU216HW,2013-07-09 12:52:00,
2013-07-09 08:57:00,76.3,72.2,29.98,SSW,203,0.9,3.6,87,0.00,,,0.00,WUHU216HW,2013-07-09 12:57:00,
2013-07-09 09:02:00,76.5,72.0,29.98,NNW,338,0.2,3.4,86,0.00,,,0.00,WUHU216HW,2013-07-09 13:02:00,
2013-07-09 09:07:00,76.9,72.0,29.98,NNE,23,0.7,3.4,85,0.00,,,0.00,WUHU216HW,2013-07-09 13:07:00,
2013-07-09 09:12:00,77.0,72.2,29.98,SW,225,0.0,1.8,85,0.00,,,0.00,WUHU216HW,2013-07-09 13:12:00,
2013-07-09 09:17:00,77.4,72.5,29.97,NNW,338,0.4,1.8,85,0.00,,,0.00,WUHU216HW,2013-07-09 13:17:00,
2013-07-09 09:22:00,77.9,73.1,29.97,WNW,293,1.1,2.5,85,0.00,,,0.00,WUHU216HW,2013-07-09 13:22:00,
2013-07-09 09:27:00,78.5,73.3,29.98,WNW,293,1.1,2.7,84,0.00,,,0.00,WUHU216HW,2013-07-09 13:27:00,
2013-07-09 09:32:00,78.7,73.1,29.98,WSW,248,1.6,2.7,83,0.00,,,0.00,WUHU216HW,2013-07-09 13:32:00,
2013-07-09 09:37:00,78.8,73.3,29.97,SSW,203,0.0,2.2,83,0.00,,,0.00,WUHU216HW,2013-07-09 13:37:00,
2013-07-09 09:42:00,79.2,73.3,29.97,North,0,2.5,3.6,82,0.00,,,0.00,WUHU216HW,2013-07-09 13:42:00,
2013-07-09 09:47:00,79.7,73.5,29.97,WSW,248,4.0,4.0,81,0.00,,,0.00,WUHU216HW,2013-07-09 13:47:00,
2013-07-09 09:52:00,79.7,73.1,29.97,NNW,338,0.2,4.3,80,0.00,,,0.00,WUHU216HW,2013-07-09 13:52:00,
2013-07-09 09:57:00,79.9,72.9,29.97,SW,225,2.5,6.0,79,0.00,,,0.00,WUHU216HW,2013-07-09 13:57:00,
2013-07-09 10:02:00,79.7,72.3,29.97,WSW,248,1.3,6.0,78,0.00,,,0.00,WUHU216HW,2013-07-09 14:02:00,
2013-07-09 10:07:00,79.7,72.3,29.97,WSW,248,1.8,5.4,78,0.00,,,0.00,WUHU216HW,2013-07-09 14:07:00,
2013-07-09 10:12:00,79.9,72.9,29.97,SSW,203,1.8,4.0,79,0.00,,,0.00,WUHU216HW,2013-07-09 14:12:00,
2013-07-09 10:17:00,80.3,72.8,29.97,SSW,203,1.8,3.4,78,0.00,,,0.00,WUHU216HW,2013-07-09 14:17:00,
2013-07-09 10:22:00,80.5,72.6,29.97,SSW,203,1.6,4.9,77,0.00,,,0.00,WUHU216HW,2013-07-09 14:22:00,
2013-07-09 10:27:00,80.5,72.2,29.97,West,270,2.7,5.4,76,0.00,,,0.00,WUHU216HW,2013-07-09 14:27:00,
2013-07-09 10:32:00,80.6,72.4,29.97,WSW,248,3.8,5.4,76,0.00,,,0.00,WUHU216HW,2013-07-09 14:32:00,
2013-07-09 10:37:00,81.2,72.6,29.97,WSW,248,2.9,4.9,75,0.00,,,0.00,WUHU216HW,2013-07-09 14:37:00,
2013-07-09 10:42:00,81.5,72.8,29.97,WSW,248,2.5,4.9,75,0.00,,,0.00,WUHU216HW,2013-07-09 14:42:00,
2013-07-09 10:47:00,81.9,72.4,29.97,WSW,248,2.5,6.0,73,0.00,,,0.00,WUHU216HW,2013-07-09 14:47:00,
2013-07-09 10:52:00,82.1,73.0,29.97,North,0,1.1,6.0,74,0.00,,,0.00,WUHU216HW,2013-07-09 14:52:00,
2013-07-09 10:57:00,82.4,73.3,29.97,NNW,338,1.8,4.5,74,0.00,,,0.00,WUHU216HW,2013-07-09 14:57:00,
2013-07-09 11:02:00,83.0,73.5,29.97,West,270,3.6,4.0,73,0.00,,,0.00,WUHU216HW,2013-07-09 15:02:00,
2013-07-09 11:07:00,83.2,73.2,29.97,West,270,3.6,4.7,72,0.00,,,0.00,WUHU216HW,2013-07-09 15:07:00,
2013-07-09 11:12:00,83.2,73.2,29.97,North,0,2.0,5.1,72,0.00,,,0.00,WUHU216HW,2013-07-09 15:12:00,
2013-07-09 11:17:00,83.2,72.8,29.97,NNW,338,5.8,5.8,71,0.00,,,0.00,WUHU216HW,2013-07-09 15:17:00,
2013-07-09 11:22:00,83.3,72.5,29.97,SW,225,3.4,5.8,70,0.00,,,0.00,WUHU216HW,2013-07-09 15:22:00,
2013-07-09 11:27:00,83.5,72.7,29.97,SW,225,2.0,5.6,70,0.00,,,0.00,WUHU216HW,2013-07-09 15:27:00,
2013-07-09 11:32:00,84.1,73.6,29.97,WSW,248,3.1,5.1,71,0.00,,,0.00,WUHU216HW,2013-07-09 15:32:00,
2013-07-09 11:37:00,84.6,72.9,29.97,WSW,248,4.3,6.0,68,0.00,,,0.00,WUHU216HW,2013-07-09 15:37:00,
2013-07-09 11:42:00,85.1,73.0,29.97,WSW,248,2.5,6.0,67,0.00,,,0.00,WUHU216HW,2013-07-09 15:42:00,
2013-07-09 11:47:00,85.3,73.2,29.97,WSW,248,2.2,4.7,67,0.00,,,0.00,WUHU216HW,2013-07-09 15:47:00,
2013-07-09 11:52:00,85.5,73.4,29.97,SSW,203,3.4,4.7,67,0.00,,,0.00,WUHU216HW,2013-07-09 15:52:00,
2013-07-09 11:57:00,86.0,73.4,29.97,SW,225,3.6,7.4,66,0.00,,,0.00,WUHU216HW,2013-07-09 15:57:00,
2013-07-09 12:02:00,86.0,73.4,29.97,SSW,203,2.2,7.4,66,0.00,,,0.00,WUHU216HW,2013-07-09 16:02:00,
2013-07-09 12:07:00,86.0,73.8,29.97,SSW,203,1.8,6.3,67,0.00,,,0.00,WUHU216HW,2013-07-09 16:07:00,
2013-07-09 12:12:00,86.6,73.9,29.97,North,0,0.9,6.3,66,0.00,,,0.00,WUHU216HW,2013-07-09 16:12:00,
2013-07-09 12:17:00,86.8,74.1,29.97,WSW,248,1.6,6.3,66,0.00,,,0.00,WUHU216HW,2013-07-09 16:17:00,
2013-07-09 12:22:00,87.1,73.9,29.97,SW,225,2.5,5.1,65,0.00,,,0.00,WUHU216HW,2013-07-09 16:22:00,
2013-07-09 12:27:00,87.5,74.3,29.97,SW,225,1.8,4.0,65,0.00,,,0.00,WUHU216HW,2013-07-09 16:27:00,
2013-07-09 12:32:00,87.8,74.2,29.97,SW,225,3.4,5.4,64,0.00,,,0.00,WUHU216HW,2013-07-09 16:32:00,
2013-07-09 12:37:00,88.0,74.4,29.97,SW,225,2.5,5.4,64,0.00,,,0.00,WUHU216HW,2013-07-09 16:37:00,
2013-07-09 12:42:00,88.0,73.9,29.97,SSW,203,4.0,6.9,63,0.00,,,0.00,WUHU216HW,2013-07-09 16:42:00,
2013-07-09 12:47:00,88.0,73.9,29.96,SW,225,2.5,6.9,63,0.00,,,0.00,WUHU216HW,2013-07-09 16:47:00,
2013-07-09 12:52:00,88.2,74.1,29.96,SW,225,4.9,4.9,63,0.00,,,0.00,WUHU216HW,2013-07-09 16:52:00,
2013-07-09 12:57:00,88.4,73.8,29.96,SW,225,2.2,6.0,62,0.00,,,0.00,WUHU216HW,2013-07-09 16:57:00,
2013-07-09 13:02:00,88.4,73.8,29.96,WSW,248,7.6,7.6,62,0.00,,,0.00,WUHU216HW,2013-07-09 17:02:00,
2013-07-09 13:07:00,88.2,73.6,29.95,North,0,1.1,7.6,62,0.00,,,0.00,WUHU216HW,2013-07-09 17:07:00,
2013-07-09 13:12:00,88.2,73.6,29.95,SSW,203,1.8,7.6,62,0.00,,,0.00,WUHU216HW,2013-07-09 17:12:00,
2013-07-09 13:17:00,88.4,73.8,29.95,SW,225,3.4,4.5,62,0.00,,,0.00,WUHU216HW,2013-07-09 17:17:00,
2013-07-09 13:22:00,88.6,73.9,29.95,WNW,293,1.8,5.1,62,0.00,,,0.00,WUHU216HW,2013-07-09 17:22:00,
2013-07-09 13:27:00,88.7,74.1,29.95,SW,225,2.2,5.1,62,0.00,,,0.00,WUHU216HW,2013-07-09 17:27:00,
2013-07-09 13:32:00,88.7,73.6,29.95,WSW,248,1.8,5.4,61,0.00,,,0.00,WUHU216HW,2013-07-09 17:32:00,
2013-07-09 13:37:00,88.7,74.1,29.95,SW,225,3.6,5.4,62,0.00,,,0.00,WUHU216HW,2013-07-09 17:37:00,
2013-07-09 13:42:00,88.7,73.6,29.95,WSW,248,3.6,4.5,61,0.00,,,0.00,WUHU216HW,2013-07-09 17:42:00,
2013-07-09 13:47:00,88.6,73.4,29.94,WSW,248,2.9,5.8,61,0.00,,,0.00,WUHU216HW,2013-07-09 17:47:00,
2013-07-09 13:52:00,88.6,73.4,29.94,South,180,1.6,5.8,61,0.00,,,0.00,WUHU216HW,2013-07-09 17:52:00,
2013-07-09 13:57:00,88.9,73.8,29.94,WSW,248,0.4,4.7,61,0.00,,,0.00,WUHU216HW,2013-07-09 17:57:00,
2013-07-09 14:02:00,88.9,73.8,29.94,WSW,248,3.8,4.7,61,0.00,,,0.00,WUHU216HW,2013-07-09 18:02:00,
2013-07-09 14:07:00,88.7,73.6,29.94,SW,225,2.5,5.1,61,0.00,,,0.00,WUHU216HW,2013-07-09 18:07:00,
2013-07-09 14:12:00,88.6,73.0,29.94,WNW,293,1.8,5.1,60,0.00,,,0.00,WUHU216HW,2013-07-09 18:12:00,
2013-07-09 14:17:00,88.4,73.3,29.94,SW,225,3.4,5.1,61,0.00,,,0.00,WUHU216HW,2013-07-09 18:17:00,
2013-07-09 14:22:00,88.2,72.7,29.94,WNW,293,3.8,5.1,60,0.00,,,0.00,WUHU216HW,2013-07-09 18:22:00,
2013-07-09 14:27:00,88.2,72.7,29.94,SW,225,2.2,5.1,60,0.00,,,0.00,WUHU216HW,2013-07-09 18:27:00,
2013-07-09 14:32:00,88.0,73.0,29.94,SW,225,2.0,5.1,61,0.00,,,0.00,WUHU216HW,2013-07-09 18:32:00,
2013-07-09 14:37:00,87.8,72.8,29.94,SW,225,3.8,6.5,61,0.00,,,0.00,WUHU216HW,2013-07-09 18:37:00,
2013-07-09 14:42:00,87.7,72.2,29.94,SW,225,2.5,6.7,60,0.00,,,0.00,WUHU216HW,2013-07-09 18:42:00,
2013-07-09 14:47:00,87.7,72.6,29.94,WSW,248,2.7,6.7,61,0.00,,,0.00,WUHU216HW,2013-07-09 18:47:00,
2013-07-09 14:52:00,87.5,72.0,29.93,WNW,293,2.9,6.0,60,0.00,,,0.00,WUHU216HW,2013-07-09 18:52:00,
2013-07-09 14:57:00,87.3,71.8,29.93,SW,225,1.8,6.0,60,0.00,,,0.00,WUHU216HW,2013-07-09 18:57:00,
2013-07-09 15:02:00,87.1,71.6,29.93,WSW,248,5.4,5.4,60,0.00,,,0.00,WUHU216HW,2013-07-09 19:02:00,
2013-07-09 15:07:00,87.1,71.6,29.93,SSW,203,1.8,5.4,60,0.00,,,0.00,WUHU216HW,2013-07-09 19:07:00,
2013-07-09 15:12:00,87.1,72.1,29.93,SW,225,1.1,5.4,61,0.00,,,0.00,WUHU216HW,2013-07-09 19:12:00,
2013-07-09 15:17:00,87.3,72.3,29.93,WSW,248,6.9,6.9,61,0.00,,,0.00,WUHU216HW,2013-07-09 19:17:00,
2013-07-09 15:22:00,87.3,72.3,29.93,WNW,293,1.3,6.9,61,0.00,,,0.00,WUHU216HW,2013-07-09 19:22:00,
2013-07-09 15:27:00,87.3,71.8,29.93,West,270,4.0,6.9,60,0.00,,,0.00,WUHU216HW,2013-07-09 19:27:00,
2013-07-09 15:32:00,87.3,72.3,29.92,WNW,293,3.1,6.9,61,0.00,,,0.00,WUHU216HW,2013-07-09 19:32:00,
2013-07-09 15:37:00,87.3,72.3,29.92,WSW,248,5.4,5.4,61,0.00,,,0.00,WUHU216HW,2013-07-09 19:37:00,
2013-07-09 15:42:00,87.3,72.3,29.91,West,270,3.1,7.4,61,0.00,,,0.00,WUHU216HW,2013-07-09 19:42:00,
2013-07-09 15:47:00,87.3,72.3,29.91,SW,225,4.7,7.4,61,0.00,,,0.00,WUHU216HW,2013-07-09 19:47:00,
2013-07-09 15:52:00,87.5,72.9,29.91,SSW,203,1.3,6.0,62,0.00,,,0.00,WUHU216HW,2013-07-09 19:52:00,
2013-07-09 15:57:00,87.7,73.1,29.91,SW,225,3.4,5.4,62,0.00,,,0.00,WUHU216HW,2013-07-09 19:57:00,
2013-07-09 16:02:00,87.8,73.3,29.91,SW,225,2.5,5.4,62,0.00,,,0.00,WUHU216HW,2013-07-09 20:02:00,
2013-07-09 16:07:00,87.8,73.3,29.91,West,270,2.9,4.5,62,0.00,,,0.00,WUHU216HW,2013-07-09 20:07:00,
2013-07-09 16:12:00,88.0,73.5,29.91,West,270,1.8,6.3,62,0.00,,,0.00,WUHU216HW,2013-07-09 20:12:00,
2013-07-09 16:17:00,88.2,74.1,29.90,West,270,2.0,6.3,63,0.00,,,0.00,WUHU216HW,2013-07-09 20:17:00,
2013-07-09 16:22:00,88.2,73.6,29.91,WSW,248,4.5,6.3,62,0.00,,,0.00,WUHU216HW,2013-07-09 20:22:00,
2013-07-09 16:27:00,88.2,73.6,29.90,WNW,293,2.9,8.1,62,0.00,,,0.00,WUHU216HW,2013-07-09 20:27:00,
2013-07-09 16:33:00,88.0,73.5,29.90,WSW,248,2.5,8.1,62,0.00,,,0.00,WUHU216HW,2013-07-09 20:33:00,
2013-07-09 16:38:00,87.5,72.9,29.91,WSW,248,3.6,6.9,62,0.00,,,0.00,WUHU216HW,2013-07-09 20:38:00,
2013-07-09 16:42:00,87.3,73.2,29.90,NNW,338,1.8,6.9,63,0.00,,,0.00,WUHU216HW,2013-07-09 20:42:00,
2013-07-09 16:47:00,87.1,73.4,29.90,SW,225,3.1,4.7,64,0.00,,,0.00,WUHU216HW,2013-07-09 20:47:00,
2013-07-09 16:52:00,87.3,73.6,29.90,SW,225,2.0,5.6,64,0.00,,,0.00,WUHU216HW,2013-07-09 20:52:00,
2013-07-09 16:57:00,87.1,73.9,29.90,WSW,248,4.7,5.6,65,0.00,,,0.00,WUHU216HW,2013-07-09 20:57:00,
2013-07-09 17:02:00,86.9,73.8,29.90,SW,225,1.6,5.4,65,0.00,,,0.00,WUHU216HW,2013-07-09 21:02:00,
2013-07-09 17:07:00,86.8,74.1,29.90,West,270,2.5,5.4,66,0.00,,,0.00,WUHU216HW,2013-07-09 21:07:00,
2013-07-09 17:12:00,86.6,73.9,29.91,WSW,248,4.3,4.9,66,0.00,,,0.00,WUHU216HW,2013-07-09 21:12:00,
2013-07-09 17:17:00,86.2,74.0,29.92,West,270,6.3,6.3,67,0.00,,,0.00,WUHU216HW,2013-07-09 21:17:00,
2013-07-09 17:23:00,83.2,70.6,29.94,WSW,248,3.4,11.6,66,0.18,,,0.16,WUHU216HW,2013-07-09 21:23:00,
2013-07-09 17:28:00,80.6,70.4,29.90,ENE,68,2.5,11.6,71,0.28,,,0.28,WUHU216HW,2013-07-09 21:28:00,
2013-07-09 17:33:00,79.6,69.8,29.90,NNE,23,0.0,6.5,72,0.28,,,0.28,WUHU216HW,2013-07-09 21:33:00,
2013-07-09 17:38:00,79.4,70.4,29.89,NNE,23,0.0,2.9,74,0.28,,,0.28,WUHU216HW,2013-07-09 21:38:00,
2013-07-09 17:43:00,79.2,70.6,29.91,SSW,203,2.7,3.8,75,0.28,,,0.28,WUHU216HW,2013-07-09 21:43:00,
2013-07-09 17:47:00,78.5,70.7,29.92,WSW,248,4.7,6.3,77,0.28,,,0.28,WUHU216HW,2013-07-09 21:47:00,
2013-07-09 17:52:00,77.6,69.8,29.94,WNW,293,1.6,6.3,77,0.28,,,0.28,WUHU216HW,2013-07-09 21:52:00,
2013-07-09 17:57:00,76.7,69.0,29.92,SW,225,1.1,6.3,77,0.31,,,0.31,WUHU216HW,2013-07-09 21:57:00,
2013-07-09 18:03:00,76.3,68.6,29.91,WNW,293,1.8,6.3,77,0.31,,,0.31,WUHU216HW,2013-07-09 22:03:00,
2013-07-09 18:08:00,75.6,68.3,29.92,SSW,203,1.1,2.5,78,0.31,,,0.31,WUHU216HW,2013-07-09 22:08:00,
2013-07-09 18:13:00,75.2,68.0,29.92,West,270,1.8,2.5,78,0.31,,,0.31,WUHU216HW,2013-07-09 22:13:00,
2013-07-09 18:18:00,74.9,68.1,29.92,WSW,248,1.3,2.5,79,0.30,,,0.31,WUHU216HW,2013-07-09 22:18:00,
2013-07-09 18:23:00,74.5,67.7,29.93,SW,225,1.1,4.5,79,0.09,,,0.31,WUHU216HW,2013-07-09 22:23:00,
2013-07-09 18:28:00,74.3,67.9,29.93,NNW,338,0.0,4.5,80,0.04,,,0.32,WUHU216HW,2013-07-09 22:28:00,
2013-07-09 18:33:00,74.0,67.9,29.93,SW,225,1.1,2.5,81,0.04,,,0.32,WUHU216HW,2013-07-09 22:33:00,
2013-07-09 18:38:00,73.8,67.7,29.92,SW,225,1.1,2.5,81,0.04,,,0.32,WUHU216HW,2013-07-09 22:38:00,
2013-07-09 18:43:00,73.4,67.3,29.92,WSW,248,0.7,2.5,81,0.04,,,0.32,WUHU216HW,2013-07-09 22:43:00,
2013-07-09 18:48:00,73.4,67.7,29.92,West,270,0.7,2.0,82,0.04,,,0.32,WUHU216HW,2013-07-09 22:48:00,
2013-07-09 18:53:00,73.3,67.5,29.91,WSW,248,0.0,2.0,82,0.02,,,0.32,WUHU216HW,2013-07-09 22:53:00,
2013-07-09 18:58:00,73.1,67.3,29.91,WSW,248,0.0,1.1,82,0.02,,,0.33,WUHU216HW,2013-07-09 22:58:00,
2013-07-09 19:03:00,73.1,67.3,29.90,SW,225,0.0,2.9,82,0.03,,,0.34,WUHU216HW,2013-07-09 23:03:00,
2013-07-09 19:08:00,73.1,67.6,29.90,West,270,1.3,2.9,83,0.03,,,0.34,WUHU216HW,2013-07-09 23:08:00,
2013-07-09 19:13:00,72.9,67.4,29.89,WSW,248,0.0,1.6,83,0.04,,,0.35,WUHU216HW,2013-07-09 23:13:00,
2013-07-09 19:18:00,72.9,67.4,29.89,WSW,248,0.0,1.6,83,0.04,,,0.35,WUHU216HW,2013-07-09 23:18:00,
2013-07-09 19:23:00,72.7,67.2,29.89,WSW,248,2.9,2.9,83,0.04,,,0.35,WUHU216HW,2013-07-09 23:23:00,
2013-07-09 19:28:00,72.7,67.2,29.89,WSW,248,0.7,2.9,83,0.04,,,0.36,WUHU216HW,2013-07-09 23:28:00,
2013-07-09 19:33:00,72.5,67.4,29.89,WSW,248,0.9,2.5,84,0.04,,,0.36,WUHU216HW,2013-07-09 23:33:00,
2013-07-09 19:38:00,72.4,67.2,29.89,WSW,248,0.9,2.5,84,0.04,,,0.36,WUHU216HW,2013-07-09 23:38:00,
2013-07-09 19:43:00,72.4,67.2,29.88,WSW,248,0.7,1.8,84,0.04,,,0.36,WUHU216HW,2013-07-09 23:43:00,
2013-07-09 19:48:00,72.4,67.2,29.88,West,270,0.0,1.6,84,0.04,,,0.36,WUHU216HW,2013-07-09 23:48:00,
2013-07-09 19:53:00,72.4,67.6,29.88,WSW,248,1.1,2.9,85,0.03,,,0.36,WUHU216HW,2013-07-09 23:53:00,
2013-07-09 19:58:00,72.4,67.6,29.88,WSW,248,1.3,2.9,85,0.02,,,0.36,WUHU216HW,2013-07-09 23:58:00,
2013-07-09 20:03:00,72.4,67.6,29.88,WSW,248,2.2,2.2,85,0.02,,,0.36,WUHU216HW,2013-07-10 00:03:00,
2013-07-09 20:08:00,72.4,68.0,29.88,WSW,248,1.3,2.5,86,0.01,,,0.36,WUHU216HW,2013-07-10 00:08:00,
2013-07-09 20:13:00,72.4,68.0,29.88,WSW,248,1.6,2.7,86,0.01,,,0.36,WUHU216HW,2013-07-10 00:13:00,
2013-07-09 20:18:00,72.4,68.0,29.88,WSW,248,2.2,3.1,86,0.01,,,0.36,WUHU216HW,2013-07-10 00:18:00,
2013-07-09 20:23:00,72.4,68.0,29.88,WSW,248,1.8,4.0,86,0.01,,,0.36,WUHU216HW,2013-07-10 00:23:00,
2013-07-09 20:28:00,72.4,68.3,29.88,WSW,248,1.8,4.0,87,0.00,,,0.36,WUHU216HW,2013-07-10 00:28:00,
2013-07-09 20:33:00,72.4,68.3,29.88,WSW,248,1.3,2.9,87,0.00,,,0.36,WUHU216HW,2013-07-10 00:33:00,
2013-07-09 20:38:00,72.4,68.3,29.88,WSW,248,2.2,3.1,87,0.00,,,0.36,WUHU216HW,2013-07-10 00:38:00,
2013-07-09 20:43:00,72.4,68.3,29.88,WSW,248,1.6,3.1,87,0.00,,,0.36,WUHU216HW,2013-07-10 00:43:00,
2013-07-09 20:48:00,72.4,68.3,29.88,SSW,203,0.9,2.9,87,0.00,,,0.36,WUHU216HW,2013-07-10 00:48:00,
2013-07-09 20:53:00,72.4,68.6,29.88,SW,225,1.1,2.9,88,0.00,,,0.36,WUHU216HW,2013-07-10 00:53:00,
2013-07-09 20:58:00,72.4,68.6,29.89,SW,225,1.1,1.8,88,0.00,,,0.36,WUHU216HW,2013-07-10 00:58:00,
2013-07-09 21:03:00,72.4,68.6,29.88,SW,225,1.6,2.9,88,0.00,,,0.36,WUHU216HW,2013-07-10 01:03:00,
2013-07-09 21:08:00,72.5,68.8,29.88,SSW,203,1.3,2.9,88,0.00,,,0.36,WUHU216HW,2013-07-10 01:08:00,
2013-07-09 21:13:00,72.5,68.8,29.89,SSW,203,1.3,2.0,88,0.00,,,0.36,WUHU216HW,2013-07-10 01:13:00,
2013-07-09 21:18:00,72.5,68.8,29.89,SW,225,0.7,2.0,88,0.00,,,0.36,WUHU216HW,2013-07-10 01:18:00,
2013-07-09 21:23:00,72.5,68.8,29.89,SSW,203,1.1,1.8,88,0.00,,,0.36,WUHU216HW,2013-07-10 01:23:00,
2013-07-09 21:28:00,72.5,68.8,29.89,SSW,203,1.8,1.8,88,0.00,,,0.36,WUHU216HW,2013-07-10 01:28:00,
2013-07-09 21:33:00,72.5,68.8,29.89,SSW,203,0.2,1.8,88,0.00,,,0.36,WUHU216HW,2013-07-10 01:33:00,
2013-07-09 21:38:00,72.5,68.8,29.89,SSW,203,0.4,2.0,88,0.00,,,0.36,WUHU216HW,2013-07-10 01:38:00,
2013-07-09 21:43:00,72.5,68.8,29.89,SSW,203,0.9,2.0,88,0.00,,,0.36,WUHU216HW,2013-07-10 01:43:00,
2013-07-09 21:48:00,72.5,68.8,29.89,SW,225,1.8,2.0,88,0.00,,,0.36,WUHU216HW,2013-07-10 01:48:00,
2013-07-09 21:53:00,72.5,68.8,29.89,SSW,203,2.0,2.5,88,0.00,,,0.36,WUHU216HW,2013-07-10 01:53:00,
2013-07-09 21:58:00,72.5,68.8,29.89,SSW,203,2.0,2.5,88,0.00,,,0.36,WUHU216HW,2013-07-10 01:58:00,
2013-07-09 22:03:00,72.5,68.8,29.89,South,180,0.4,2.5,88,0.00,,,0.36,WUHU216HW,2013-07-10 02:03:00,
2013-07-09 22:08:00,72.5,68.8,29.89,SSW,203,1.6,2.0,88,0.00,,,0.36,WUHU216HW,2013-07-10 02:08:00,
2013-07-09 22:13:00,72.5,68.8,29.89,South,180,2.5,2.5,88,0.00,,,0.36,WUHU216HW,2013-07-10 02:13:00,
2013-07-09 22:18:00,72.5,69.1,29.90,SW,225,1.1,2.5,89,0.00,,,0.36,WUHU216HW,2013-07-10 02:18:00,
2013-07-09 22:23:00,72.7,69.3,29.90,SW,225,1.8,2.7,89,0.00,,,0.36,WUHU216HW,2013-07-10 02:23:00,
2013-07-09 22:28:00,72.7,69.3,29.90,SSW,203,2.7,2.9,89,0.00,,,0.36,WUHU216HW,2013-07-10 02:28:00,
2013-07-09 22:33:00,72.7,69.3,29.90,SW,225,1.6,2.9,89,0.00,,,0.36,WUHU216HW,2013-07-10 02:33:00,
2013-07-09 22:38:00,72.5,69.1,29.90,SSW,203,1.3,2.9,89,0.00,,,0.36,WUHU216HW,2013-07-10 02:38:00,
2013-07-09 22:43:00,72.5,69.1,29.90,South,180,0.9,2.5,89,0.00,,,0.36,WUHU216HW,2013-07-10 02:43:00,
2013-07-09 22:48:00,72.5,69.1,29.90,SW,225,1.1,2.5,89,0.00,,,0.36,WUHU216HW,2013-07-10 02:48:00,
2013-07-09 22:53:00,72.5,69.1,29.90,SW,225,1.1,2.5,89,0.00,,,0.36,WUHU216HW,2013-07-10 02:53:00,
2013-07-09 22:58:00,72.5,69.1,29.89,SW,225,0.9,2.5,89,0.00,,,0.36,WUHU216HW,2013-07-10 02:58:00,
2013-07-09 23:03:00,72.5,69.1,29.89,SSW,203,1.3,1.8,89,0.00,,,0.36,WUHU216HW,2013-07-10 03:03:00,
2013-07-09 23:08:00,72.5,69.1,29.89,SSW,203,0.7,5.8,89,0.00,,,0.36,WUHU216HW,2013-07-10 03:08:00,
2013-07-09 23:13:00,72.7,69.3,29.89,SW,225,0.4,5.8,89,0.00,,,0.36,WUHU216HW,2013-07-10 03:13:00,
2013-07-09 23:18:00,72.7,69.3,29.89,SSW,203,1.1,2.0,89,0.01,,,0.37,WUHU216HW,2013-07-10 03:18:00,
2013-07-09 23:23:00,72.7,69.3,29.89,South,180,2.5,2.5,89,0.03,,,0.39,WUHU216HW,2013-07-10 03:23:00,
2013-07-09 23:28:00,72.7,69.3,29.88,SW,225,0.4,4.3,89,0.04,,,0.40,WUHU216HW,2013-07-10 03:28:00,
2013-07-09 23:33:00,72.7,69.3,29.88,SSE,158,1.1,4.3,89,0.04,,,0.40,WUHU216HW,2013-07-10 03:33:00,
2013-07-09 23:38:00,72.7,69.3,29.88,SE,135,0.9,2.5,89,0.04,,,0.40,WUHU216HW,2013-07-10 03:38:00,
2013-07-09 23:43:00,72.7,69.3,29.87,SSE,158,0.2,2.5,89,0.04,,,0.40,WUHU216HW,2013-07-10 03:43:00,
2013-07-09 23:48:00,72.7,69.3,29.87,SE,135,0.0,1.6,89,0.04,,,0.40,WUHU216HW,2013-07-10 03:48:00,
2013-07-09 23:53:00,72.7,69.3,29.87,SW,225,0.9,1.1,89,0.04,,,0.40,WUHU216HW,2013-07-10 03:53:00,
2013-07-09 23:58:00,72.7,69.3,29.87,SSE,158,2.2,2.2,89,0.04,,,0.40,WUHU216HW,2013-07-10 03:58:00,